This demonstration page uses our WeatherBlox Daily Observations layout. Learn more.

Left ArrowRight Arrow

Hourly Observations for June 6, 2016

Temp ( °F °C ) Dew Point ( °F °C ) Humidity (%) Winds ( mph kmh ) Pressure ( in mb ) Visibility ( mi km ) Precip ( " mm )
12:53 am 00:53 Clear 56 13.3 46 7.8 70 70 NE 8 13 30.06 1018 10 16 0.00 0.00
1:53 am 01:53 Clear 56 13.3 46 7.8 70 70 NE 7 11 30.05 1018 10 16 0.00 0.00
2:53 am 02:53 Clear 53 11.7 46 7.8 77 77 NE 5 7 30.06 1018 10 16 0.00 0.00
3:53 am 03:53 Clear 52 11.1 45 7.2 77 77 NE 7 11 30.06 1018 10 16 0.00 0.00
4:53 am 04:53 Clear 48 8.9 45 7.2 89 89 VRB 3 6 30.05 1018 10 16 0.00 0.00
5:53 am 05:53 Sunny 51 10.6 45 7.2 80 80 ENE 9 15 30.05 1018 10 16 0.00 0.00
6:53 am 06:53 Sunny 55 12.8 45 7.2 69 69 E 12 19 30.04 1017 10 16 0.00 0.00
7:53 am 07:53 Sunny 60 15.6 47 8.3 62 62 E 12 19 30.04 1017 10 16 0.00 0.00
8:53 am 08:53 Sunny 66 18.9 50 10 56 56 ENE 6 9 30.04 1017 10 16 0.00 0.00
9:53 am 09:53 Sunny 70 21.1 51 10.6 51 51 NE 9 15 30.03 1017 10 16 0.00 0.00
10:53 am 10:53 Sunny 75 23.9 47 8.3 37 37 E 3 6 30.00 1016 10 16 0.00 0.00
11:53 am 11:53 Sunny 79 26.1 48 8.9 34 34 ENE 5 7 29.98 1015 10 16 0.00 0.00
12:53 pm 12:53 Sunny 79 26.1 48 8.9 34 34 ESE 10 17 29.97 1015 10 16 0.00 0.00
1:53 pm 13:53 Sunny 81 27.2 49 9.4 33 33 ESE 8 13 29.94 1014 10 16 0.00 0.00
2:53 pm 14:53 Sunny 82 27.8 50 10 33 33 E 14 22 29.91 1013 10 16 0.00 0.00
3:53 pm 15:53 Sunny 81 27.2 50 10 34 34 ESE 9 15 29.90 1012 10 16 0.00 0.00
4:53 pm 16:53 Sunny 82 27.8 50 10 33 33 SE 13 20 29.87 1012 10 16 0.00 0.00
5:53 pm 17:53 Sunny 82 27.8 50 10 33 33 SE 12 19 29.85 1011 10 16 0.00 0.00
6:53 pm 18:53 Sunny 80 26.7 52 11.1 38 38 ESE 12 19 29.83 1010 10 16 0.00 0.00
7:53 pm 19:53 Sunny 78 25.6 53 11.7 42 42 E 10 17 29.82 1010 10 16 0.00 0.00
8:53 pm 20:53 Sunny 73 22.8 53 11.7 50 50 E 8 13 29.81 1009 10 16 0.00 0.00
9:53 pm 21:53 Clear 66 18.9 53 11.7 63 63 ENE 5 7 29.82 1010 10 16 0.00 0.00
10:53 pm 22:53 Clear 62 16.7 52 11.1 70 70 ENE 10 17 29.80 1009 10 16 0.00 0.00
11:53 pm 23:53 Clear 60 15.6 50 10 70 70 ENE 9 15 29.79 1009 10 16 0.00 0.00

Powered by AerisWeather